Location: Dattensoll
(49.9928°N, 9.8954°E)
Time: 19:03:20
(UTC+00:00)

CZ-4C R/B - Pass Details

Date: 19 May 2025
Orbit: 425 x 537 km, 98.0° (Epoch: 20 June)

Event Time Altitude Azimuth Distance (km) Brightness Sun altitude
Rises 21:13:55 0° 22° (NNE) 2,609 7.3 -14.9°
Reaches altitude 10° 21:16:15 10° 34° (NE) 1,698 6.2 -15.1°
Maximum altitude 21:19:28 29° 96° (E) 913 4.1 -15.4°
Enters shadow 21:20:08 27° 117° (ESE) 954 4.1 -15.4°
